Regional Weather Roundup
Issued by NWS

Home | Current Version | Previous Version | Text Only | Print | Product List | Glossary Off
Versions: 1 2 3 4 5 6 7 8 9 10 11 12 13 14 15 16 17 18 19 20 21 22 23 24 25 26 27 28 29 30 31 32 33 34 35 36 37 38 39 40 41 42 43 44 45 46 47 48 49 50

000
ASUS43 KLOT 272008
RWRIL

ILLINOIS REGIONAL WEATHER ROUNDUP
NATIONAL WEATHER SERVICE CHICAGO/ROMEOVILLE IL
300 PM CDT SAT AUG 27 2016

NOTE: "FAIR" INDICATES FEW OR NO CLOUDS BELOW 12,000 FEET WITH NO
SIGNIFICANT WEATHER AND/OR OBSTRUCTIONS TO VISIBILITY.

* THESE STATIONS ARE NOT UNDER NWS QUALITY CONTROL. THEY ALSO MAY NOT
  REPORT WEATHER SUCH AS PRECIPITATION OR FOG.

ILZ001-002-007-009-015-016-024-272100-
NORTHWEST ILLINOIS

CITY           SKY/WX    TMP DP  RH WIND       PRES   REMARKS
MOLINE         MOSUNNY   84  69  60 W8        30.00F HX  88
STERLING*      MOSUNNY   84  71  65 W12       30.00F HX  89
SAVANNA*       PTSUNNY   81  69  67 SW7       30.00F HX  84
$$

ILZ003-004-008-010-011-017-018-272100-
NORTH CENTRAL ILLINOIS

CITY           SKY/WX    TMP DP  RH WIND       PRES   REMARKS
ROCKFORD       CLOUDY    81  69  67 SW8       30.01F HX  84
FREEPORT*      MOSUNNY   79  69  69 SW9       30.03S HX  82
ROCHELLE*      CLOUDY    82  72  71 SW9       30.02F HX  86
DE KALB*       PTSUNNY   80  73  77 S8        30.03F HX  84
$$

ILZ005-006-012>014-019>023-272100-
NORTHEAST ILLINOIS

CITY           SKY/WX    TMP DP  RH WIND       PRES   REMARKS
CHICAGO-OHARE  PTSUNNY   82  71  69 SW8       30.02S HX  86
CHICAGO-MIDWAY PTSUNNY   85  70  60 SW10G17   30.01F HX  89
AURORA         MOSUNNY   84  72  67 SW7       30.03S HX  89
LANSING*       MOSUNNY   84  75  74 S9        30.03F HX  92
JOLIET*        MOSUNNY   86  74  66 SW7       30.02F HX  94
WAUKEGAN       CLOUDY    80  70  71 S12       30.01F HX  83
DUPAGE AIRPORT PTSUNNY   82  70  66 SW9       30.02F HX  86
KANKAKEE*      MOSUNNY   86  73  64 SW10      30.04S HX  92
WHEELING       PTSUNNY   81  69  67 SW9       30.03F HX  84
MORRIS*        MOSUNNY   84  72  67 SW8       30.01F HX  89
ROMEOVILLE*    PTSUNNY   83  75  77 SW10      30.02F HX  90
NORTHERLY ISL    N/A     82  67  60 S14         N/A  HX  84
$$

LMZ740>746-272100-
SOUTHERN LAKE MICHIGAN

STATION/POSITION SKY/WX   TEMP    WIND        PRES    VSBY  WAVE
                          AIR SEA DIR/SP/G                  HT/PER
                          (F)     (DEG/KT/KT) (MB)    (MI)  (FT/S)
SOUTHERN BUOY              74 75  170/ 12/ 14 1016.3F         3/ 4
WILMETTE HARBOR            72 69  150/  4/  6   N/A           2/ 4
HARRISON CRIB              78     170/  8/  9   N/A
BURNHAM HARBOR             82     210/  8/ 13   N/A
CALUMET HARBOR             81     180/  8/ 11 1016.5F
BURNS HARBOR               80     200/ 11/ 15 1017.6S
MICHIGAN CITY              79     150/ 13/ 16   N/A
MICHIGAN CITY 6N           78 76  200/  4/  6   N/A           1
ST. JOSEPH                 78 76  190/  4/  6 1016.8F         1/ 2
$$

ILZ025>027-034>036-040-047-049-050-058-095>099-272100-
WEST-CENTRAL ILLINOIS

CITY           SKY/WX    TMP DP  RH WIND       PRES   REMARKS
QUINCY         PTSUNNY   86  74  67 SW6       30.02F HX  94
GALESBURG*     MOSUNNY   83  71  66 SW8       30.03S HX  88
MACOMB*        MOSUNNY   83  73  72 SW5       30.05S HX  89
JACKSONVILLE*  CLOUDY    85  71  61 S7        30.03F HX  90
PITTSFIELD*    CLOUDY    88  73  61 SW8       30.04F HX  95
$$

ILZ028>032-037-038-041>044-048-051>054-059>061-272100-
CENTRAL ILLINOIS

CITY           SKY/WX    TMP DP  RH WIND       PRES   REMARKS
PONTIAC        MOSUNNY   86  75  71 S8        30.04S HX  94
BLOOMINGTON    MOSUNNY   85  73  67 W9        30.06S HX  91
DECATUR        PTSUNNY   87  72  60 S10       30.04F HX  93
PEORIA         CLOUDY    83  73  72 SW9       30.03S HX  89
LACON*         CLOUDY    83  71  66 S9        30.02S HX  87
LINCOLN*       MOSUNNY   87  73  61 CALM      30.03F HX  94
SPRINGFIELD    MOSUNNY   89  70  53 SW6       30.03F HX  94
TAYLORVILLE    MOSUNNY   85  74  70 SW5       30.04S HX  93
$$

ILZ033-039-045-046-055>057-062-063-272100-
EAST-CENTRAL ILLINOIS

CITY           SKY/WX    TMP DP  RH WIND       PRES   REMARKS
CHAMPAIGN      PTSUNNY   84  73  69 S9        30.05F HX  90
RANTOUL*       PTSUNNY   85  75  71 S8        30.05F HX  94
MATTOON        MOSUNNY   84  72  67 S6        30.05F HX  89
PARIS*         MOSUNNY   85  75  72 CALM      30.07F HX  93
$$

ILZ079-100>102-272100-
SOUTHWEST ILLINOIS

CITY           SKY/WX    TMP DP  RH WIND       PRES   REMARKS
ALTON          PTSUNNY   88  72  58 S12       30.03F HX  94
BELLEVILLE     MOSUNNY   90  73  57 VRB6      30.02F HX  97
CAHOKIA*       MOSUNNY   91  72  53 SE9       30.02F HX  98
SPARTA*        SUNNY     86  74  68 SE6       30.06S HX  94
$$

ILZ064>066-069>071-074>076-080>082-084>086-088>090-092>094-272100-
SOUTH-CENTRAL ILLINOIS

CITY           SKY/WX    TMP DP  RH WIND       PRES   REMARKS
CARBONDALE     MOSUNNY   86  72  62 SE3       30.05F HX  92
CAIRO*         SUNNY     86  74  68 CALM      30.05F HX  94
EFFINGHAM*     SUNNY     86  72  62 SE8       30.07S HX  92
MARION         MOSUNNY   88  73  62 SE6       30.06F HX  96
MT. VERNON     MOSUNNY   88  72  58 SE7       30.06F HX  94
CENTRALIA*     SUNNY     87  76  67 S6        30.04F HX  97
SALEM*         PTSUNNY   86  74  66 CALM      30.05F HX  94
METROPOLIS*    SUNNY     88  74  63 CALM      30.06F HX  97
$$

ILZ067-068-072-073-078-083-087-091-272100-
SOUTHEAST ILLINOIS

CITY           SKY/WX    TMP DP  RH WIND       PRES   REMARKS
LAWRENCEVILLE  SUNNY     87  73  62 SW8       30.07F HX  94
FLORA*         MOSUNNY   87  74  64 S7        30.06F HX  95
FAIRFIELD*     PTSUNNY   84  74  70 SE3       30.05F HX  91
HARRISBURG*    MOSUNNY   87  76  70 CALM      30.06F HX  97
ROBINSON*      MOSUNNY   85  73  69 S6        30.08S HX  91
CARMI*         MOSUNNY   87  76  70 S5        30.05F HX  96
$$

ABBREVIATIONS USED IN REMARKS
   TC - TEMPERATURE IN CELSIUS
  WCI - WIND CHILL INDEX
   HX - HEAT INDEX
  VSB - VISIBILITY
$$





USA.gov is the U.S. government's official web portal to all federal, state and local government web resources and services.